Voltar ao catálogo

STARLINK-32321

AtivoComunicaçõesVLEO
NORAD 61065·PAYLOAD·🇺🇸 United States

Lançado Sep 13, 2024 de Vandenberg Space Force Base

Loading…

Próximas Passagens (próximas 24 horas)

TLE

AtualizadoSource: CelesTrak SupGP

Época: Sep 15, 2026, 03:45 UTC

1 61065C 24164R   26258.15673611 -.00009612  00000+0 -28394-3 0  2584
2 61065  53.1594 290.4794 0001233  93.2795 283.2723 15.34400864    19

Acompanhe STARLINK-32321 em tempo real com AllMySat

Download on the App Store